This is the latest recevied weather packets stored in our database for station/object IZ1UQG-N2. If no packets are shown the sender has not sent any weather packets the latest 10 day(s).
| Time | Temp. | Humidity | Pressure | Rain* | Wind** | Luminosity | Snow |
|---|---|---|---|---|---|---|---|
| 1787920263 | 26.11° C | 78% | 1012.6 hPa | 0 mm | - | 506 W/m² | - |
| 1787920203 | 25.56° C | 77% | 1012.8 hPa | 0 mm | - | 833 W/m² | - |
| 1787920144 | 25.56° C | 78% | 1012.7 hPa | 0 mm | - | 357 W/m² | - |
| 1787920084 | 25.56° C | 79% | 1012.7 hPa | 0 mm | - | 747 W/m² | - |
| 1787920023 | 25.56° C | 78% | 1012.8 hPa | 0 mm | - | 835 W/m² | - |
| 1787919963 | 25.56° C | 77% | 1012.7 hPa | 0 mm | - | 784 W/m² | - |
| 1787919902 | 26.11° C | 77% | 1012.7 hPa | 0 mm | - | 343 W/m² | - |
| 1787919843 | 26.11° C | 78% | 1012.7 hPa | 0 mm | - | 304 W/m² | - |
| 1787919783 | 26.11° C | 78% | 1012.7 hPa | 0 mm | - | 281 W/m² | - |
| 1787919724 | 26.11° C | 77% | 1012.8 hPa | 0 mm | - | 271 W/m² | - |
| 1787919664 | 26.11° C | 77% | 1012.8 hPa | 0 mm | - | 295 W/m² | - |
| 1787919604 | 26.11° C | 77% | 1012.9 hPa | 0 mm | - | 343 W/m² | - |
| 1787919543 | 26.11° C | 76% | 1012.8 hPa | 0 mm | - | 508 W/m² | - |
| 1787919482 | 26.11° C | 76% | 1012.7 hPa | 0 mm | - | 893 W/m² | - |
| 1787919422 | 26.11° C | 76% | 1012.7 hPa | 0 mm | - | 679 W/m² | - |
| 1787919364 | 26.11° C | 78% | 1012.7 hPa | 0 mm | - | 508 W/m² | - |
| 1787919304 | 26.11° C | 77% | 1012.6 hPa | 0 mm | - | 455 W/m² | - |
| 1787919243 | 26.11° C | 78% | 1012.7 hPa | 0 mm | - | 448 W/m² | - |
| 1787919183 | 26.11° C | 78% | 1012.7 hPa | 0 mm | - | 385 W/m² | - |
| 1787919123 | 26.11° C | 78% | 1012.7 hPa | 0 mm | - | 677 W/m² | - |
| 1787919063 | 26.11° C | 78% | 1012.8 hPa | 0 mm | - | 573 W/m² | - |
| 1787919003 | 26.11° C | 77% | 1012.7 hPa | 0 mm | - | 415 W/m² | - |
| 1787918942 | 26.11° C | 78% | 1012.8 hPa | 0 mm | - | 257 W/m² | - |
| 1787918883 | 26.11° C | 78% | 1012.8 hPa | 0 mm | - | 237 W/m² | - |
| 1787918823 | 26.11° C | 78% | 1012.7 hPa | 0 mm | - | 777 W/m² | - |
* Rain latest hour (hover to see other rain measurements)
** Current wind speed in m/s (hover to see current wind gust speed)